Notices

What's New in latest Release from April 7th, 2021:

- Updated Glossary, including Speed of Maximum Gust, and Total Hourly Precipitation

- Updated national and regional climate services offices contacts and prices information

- Addition of station inventory lists for 1981-2010, 1971-2000, and 1961-1990 Normals.

If you haven't already, please take our survey and provide feedback about our website: https://eccc.sondage-survey.ca/f/LanguageSelection.aspx?s=442ca660-fcf1-47c0-95a9-59707d6fd709

Hourly Data Report for August 10, 2003

TORONTO CITY
ONTARIO

43°40'00.000" N
79°24'00.000" W
112.50 m
6158355
71508
XTO

Download Data

Hourly Data (August 2003)
Hourly Data Report for August 10, 2003
TIME
LST
Temp Definition
°C
Dew Point Definition
°C
Rel Hum Definition
%
Precip. Amount Definition
mm

Wind Dir Definition
10's deg

Wind Spd Definition
km/h
Visibility Definition
km
Stn Press Definition
kPa
Hmdx Definition


Wind Chill Definition


Weather Definition


00:00 22.6 19.7 84   LegendMM LegendMM LegendMM 100.01 30   LegendNANA
01:00 21.9 19.3 85   LegendMM LegendMM LegendMM 99.96 29   LegendNANA
02:00 21.9 19.2 85   LegendMM LegendMM LegendMM 99.95 29   LegendNANA
03:00 21.5 19.0 86   LegendMM LegendMM LegendMM 99.96 28   LegendNANA
04:00 21.2 19.0 87   LegendMM LegendMM LegendMM 99.94 28   LegendNANA
05:00 20.6 18.9 90   LegendMM LegendMM LegendMM 99.98 27   LegendNANA
06:00 20.6 19.2 92   LegendMM LegendMM LegendMM 100.04 28   LegendNANA
07:00 20.9 19.6 92   LegendMM LegendMM LegendMM 100.08 28   LegendNANA
08:00 22.0 20.2 90   LegendMM LegendMM LegendMM 100.06 30   LegendNANA
09:00 23.6 20.7 84   LegendMM LegendMM LegendMM 100.03 32   LegendNANA
10:00 25.1 20.7 77   LegendMM LegendMM LegendMM 100.00 33   LegendNANA
11:00 25.0 20.9 78   LegendMM LegendMM LegendMM 100.01 33   LegendNANA
12:00 25.1 20.9 78   LegendMM LegendMM LegendMM 100.02 33   LegendNANA
13:00 27.2 21.4 71   LegendMM LegendMM LegendMM 99.97 36   LegendNANA
14:00 27.1 21.5 71   LegendMM LegendMM LegendMM 99.93 36   LegendNANA
15:00 27.4 21.5 70   LegendMM LegendMM LegendMM 99.87 36   LegendNANA
16:00 24.5 21.0 81   LegendMM LegendMM LegendMM 99.88 33   LegendNANA
17:00 23.1 20.6 86   LegendMM LegendMM LegendMM 99.91 31   LegendNANA
18:00 23.5 21.3 87   LegendMM LegendMM LegendMM 99.90 32   LegendNANA
19:00 22.7 21.5 93   LegendMM LegendMM LegendMM 99.88 32   LegendNANA
20:00 22.7 21.4 92   LegendMM LegendMM LegendMM 99.96 31   LegendNANA
21:00 23.5 20.8 85   LegendMM LegendMM LegendMM 100.01 32   LegendNANA
22:00 22.9 20.1 84   LegendMM LegendMM LegendMM 99.99 31   LegendNANA
23:00 22.2 18.4 79   LegendMM LegendMM LegendMM 100.03 29   LegendNANA

Notes on Data Quality.

Legend

  • E = Estimated
  • M = Missing
  • NA = Not Available*
  • [empty] = Indicates an unobserved value
Date modified: